Location: Hurstbourne Priors
(51.2000°N, 1.3667°W)
Time: 19:42:11
(UTC+00:00)

Transit 4A - Pass Details

Date: 25 April 2021
Orbit: 870 x 974 km, 66.8° (Epoch: 09 May)

Event Time Altitude Azimuth Distance (km) Brightness Sun altitude
Rises 22:16:05 0° 203° (SSW) 3,619 - -21.2°
Reaches altitude 10° 22:18:40 10° 200° (SSW) 2,664 - -21.4°
Exits shadow 22:22:22 37° 186° (S) 1,424 8.4 -21.7°
Maximum altitude 22:24:46 63° 121° (ESE) 1,037 7.9 -21.8°
Drops below altitude 10° 22:30:45 10° 42° (NE) 2,608 10.5 -22.2°
Sets 22:33:15 0° 39° (NE) 3,538 11.3 -22.4°
